Chicopee, MA

9:38 PM EDT on October 13, 2019 (GMT -0400)
Westover Air Reserve Base / Metropolitan Airport

Weather History for KCEF - August, 2019

Change the Weather History Date:

Monday, August 19, 2019

  Actual Average Record
Temperature  
Mean Temperature 78 °F -  
Max Temperature 88 °F 79 °F 89 °F (2002)
Min Temperature 67 °F 58 °F 45 °F (2014)
Cooling Degree Days 13    
Growing Degree Days 28 (Base 50)    
Moisture  
Dew Point 70 °F    
Average Humidity 79    
Maximum Humidity 100    
Minimum Humidity 57    
Precipitation  
Precipitation 1.08 in - - ()
Sea Level Pressure  
Sea Level Pressure 29.96 in    
Wind  
Wind Speed 5 mph (SSE)    
Max Wind Speed 21 mph    
Max Gust Speed 33 mph    
Visibility 8 miles    
Events Rain , Hail , Thunderstorm    
Averages and records for this station are not official NWS values.
T = Trace of Precipitation, MM = Missing Value Source: NWS Daily Summary

Daily Weather History Graph

Daily Weather History Graph

Search for Another Location

Airport or City:

Astronomy

Aug. 19, 2019 Rise Set
Actual Time 6:01 AM EDT 7:45 PM EDT
Civil Twilight 5:31 AM EDT 8:14 PM EDT
Nautical Twilight 4:55 AM EDT 8:51 PM EDT
Astronomical Twilight 4:16 AM EDT 9:29 PM EDT
Moon 10:01 PM EDT (8/19) 9:43 AM EDT (8/19)
Length of Visible Light 14h 43m
Length of Day
13h 43m
Waning Gibbous, 85% of the Moon is Illuminated
Aug 19
Waning Gibbous
Aug 23
Last Quarter
Aug 30
New
Sep 5
First Quarter
Sep 14
Full

Hourly Weather History & Observations

Time (EDT) Temp. Heat Index Dew Point Humidity Pressure Visibility Wind Dir Wind Speed Gust Speed Precip Events Conditions
12:56 AM 68.7 °F - 68.4 °F 99% 29.94 in 10.0 mi Calm Calm - N/A   Partly Cloudy
1:32 AM 68.0 °F - 68.0 °F 100% 29.94 in 4.0 mi Calm Calm - N/A   Partly Cloudy
1:56 AM 67.8 °F - 67.8 °F 100% 29.96 in 9.0 mi SSW 5.8 mph - N/A   Mostly Cloudy
2:56 AM 68.4 °F - 68.0 °F 99% 29.96 in 10.0 mi Calm Calm - N/A   Clear
3:56 AM 69.1 °F - 68.7 °F 99% 29.96 in 10.0 mi SSE 3.5 mph - N/A   Overcast
4:56 AM 68.5 °F - 67.6 °F 97% 29.99 in 10.0 mi South 5.8 mph - N/A   Mostly Cloudy
5:56 AM 68.5 °F - 66.7 °F 94% 29.99 in 10.0 mi South 4.6 mph - N/A   Mostly Cloudy
6:56 AM 69.4 °F - 66.9 °F 92% 30.00 in 10.0 mi South 3.5 mph - N/A   Scattered Clouds
7:56 AM 71.8 °F - 66.6 °F 84% 30.00 in 10.0 mi South 5.8 mph - N/A   Scattered Clouds
8:56 AM 74.1 °F - 66.7 °F 78% 29.98 in 10.0 mi South 5.8 mph - N/A   Scattered Clouds
9:56 AM 77.2 °F - 67.8 °F 73% 29.99 in 10.0 mi WSW 3.5 mph - N/A   Scattered Clouds
10:56 AM 81.5 °F 84.6 °F 68.9 °F 65% 29.98 in 10.0 mi SW 5.8 mph - N/A   Partly Cloudy
11:56 AM 84.9 °F 89.1 °F 69.4 °F 60% 29.96 in 10.0 mi South 3.5 mph - N/A   Partly Cloudy
12:56 PM 88.0 °F 94.7 °F 71.8 °F 59% 29.94 in 10.0 mi South 11.5 mph - N/A   Scattered Clouds
1:56 PM 89.1 °F 96.0 °F 71.8 °F 57% 29.93 in 10.0 mi SSE 8.1 mph - N/A   Mostly Cloudy
2:00 PM 88.2 °F 95.5 °F 72.5 °F 60% 29.93 in 10.0 mi South 5.8 mph - N/A Thunderstorm Thunderstorm
2:03 PM 87.8 °F 94.7 °F 72.1 °F 60% 29.91 in 10.0 mi SSE 6.9 mph - N/A Rain , Thunderstorm Light Thunderstorms and Rain
2:06 PM 87.8 °F 93.8 °F 71.6 °F 58% 29.91 in 3.0 mi South 8.1 mph - N/A Rain , Thunderstorm Light Thunderstorms and Rain
2:08 PM 87.8 °F 95.6 °F 73.4 °F 62% 29.91 in 2.0 mi South 9.2 mph - N/A Rain , Thunderstorm Thunderstorms and Rain
2:10 PM 86.0 °F 95.1 °F 75.2 °F 70% 29.95 in 1.5 mi SW 20.7 mph 31.1 mph N/A Rain , Thunderstorm Heavy Thunderstorms and Rain
2:13 PM 84.2 °F 89.6 °F 71.6 °F 66% 29.98 in 2.0 mi South 8.1 mph 31.1 mph N/A Rain , Hail , Thunderstorm Heavy Thunderstorms and Rain
2:21 PM 75.2 °F - 66.2 °F 73% 29.94 in 3.0 mi SE 20.7 mph 33.4 mph N/A Rain , Thunderstorm Light Thunderstorms and Rain
2:26 PM 73.4 °F - 66.2 °F 78% 29.95 in 5.0 mi SSE 19.6 mph 31.1 mph N/A Rain , Thunderstorm Light Thunderstorms and Rain
2:56 PM 75.0 °F - 69.1 °F 82% 29.94 in 10.0 mi SE 8.1 mph - 1.08 in Thunderstorm Light Thunderstorm
3:11 PM 77.0 °F - 69.8 °F 78% 29.92 in 10.0 mi ESE 5.8 mph - N/A   Mostly Cloudy
3:25 PM 78.8 °F - 71.6 °F 78% 29.94 in 10.0 mi ENE 6.9 mph - N/A Thunderstorm Mostly Cloudy
3:56 PM 77.2 °F - 70.2 °F 79% 29.93 in 10.0 mi East 5.8 mph - N/A Thunderstorm Mostly Cloudy
4:41 PM 78.8 °F - 71.6 °F 78% 29.92 in 10.0 mi NNE 4.6 mph - N/A   Mostly Cloudy
4:56 PM 80.8 °F 84.7 °F 71.2 °F 73% 29.91 in 10.0 mi East 4.6 mph - N/A   Mostly Cloudy
5:56 PM 83.5 °F 89.1 °F 72.1 °F 69% 29.93 in 10.0 mi Calm Calm - N/A   Partly Cloudy
6:56 PM 81.5 °F 86.9 °F 73.6 °F 77% 29.95 in 10.0 mi SSE 6.9 mph - N/A   Scattered Clouds
7:56 PM 77.9 °F - 70.9 °F 79% 29.96 in 10.0 mi South 5.8 mph - N/A   Partly Cloudy
8:56 PM 74.8 °F - 70.3 °F 86% 29.99 in 10.0 mi SSE 3.5 mph - N/A   Partly Cloudy
9:56 PM 73.9 °F - 70.5 °F 89% 29.99 in 10.0 mi Calm Calm - N/A   Partly Cloudy
10:56 PM 72.3 °F - 69.8 °F 92% 30.00 in 10.0 mi Calm Calm - N/A   Partly Cloudy
11:56 PM 69.6 °F - 69.3 °F 99% 30.01 in 7.0 mi NNE 4.6 mph - N/A   Clear